NAVSTAR 43 (USA 132) 1 24876U 97035A 25173.22609652 -.00000010 00000-0 00000-0 0 9993 2 24876 55.8116 112.6575 0091583 54.3328 306.4826 2.00562406204733 NAVSTAR 46 (USA 145) 1 25933U 99055A 25173.57694565 -.00000085 00000-0 00000-0 0 9999 2 25933 51.7838 311.1648 0115222 163.4292 20.1100 2.00556341188366 NAVSTAR 47 (USA 150) 1 26360U 00025A 25174.34177992 -.00000076 00000-0 00000-0 0 9999 2 26360 54.9396 33.8068 0036323 232.8950 299.6843 2.00549520184077 NAVSTAR 48 (USA 151) 1 26407U 00040A 25174.56080087 .00000066 00000-0 00000-0 0 9998 2 26407 54.9362 229.4114 0133013 298.7358 234.4264 2.00565873182750 NAVSTAR 49 (USA 154) 1 26605U 00071A 25174.67147428 -.00000029 00000-0 00000+0 0 9996 2 26605 55.4288 109.1242 0165350 263.3561 277.0501 2.00556407180334 NAVSTAR 50 (USA 156) 1 26690U 01004A 25174.29051043 -.00000076 00000-0 00000-0 0 9995 2 26690 54.9373 45.8501 0002954 17.9549 144.8155 1.91588004176664 NAVSTAR 51 (USA 166) 1 27663U 03005A 25174.60148757 .00000067 00000-0 00000-0 0 9992 2 27663 54.9708 229.2197 0142510 50.2357 289.8036 2.00553791164117 NAVSTAR 52 (USA 168) 1 27704U 03010A 25173.28150428 -.00000085 00000-0 00000-0 0 9996 2 27704 54.9890 338.8290 0257386 339.3172 16.9522 2.00554884162885 NAVSTAR 53 (USA 175) 1 28129U 03058A 25172.35372424 -.00000077 00000-0 00000-0 0 9990 2 28129 54.7897 36.6522 0001791 332.1937 27.8507 1.92678545157519 NAVSTAR 54 (USA 177) 1 28190U 04009A 25174.40495561 -.00000059 00000-0 00000-0 0 9991 2 28190 55.1318 290.1603 0105968 161.6244 195.7481 2.00567119155747 NAVSTAR 55 (USA 178) 1 28361U 04023A 25172.39973008 -.00000021 00000-0 00000-0 0 9999 2 28361 54.6228 101.3054 0155828 291.8126 232.1591 2.00564372153800 NAVSTAR 56 (USA 180) 1 28474U 04045A 25174.60102506 -.00000092 00000-0 00000+0 0 9998 2 28474 55.3201 339.3224 0165771 304.0091 254.5447 2.00561632151220 NAVSTAR 57 (USA 183) 1 28874U 05038A 25174.38372921 -.00000054 00000-0 00000-0 0 9999 2 28874 55.1764 287.6356 0132632 290.2111 76.1646 2.00559709144645 NAVSTAR 58 (USA 190) 1 29486U 06042A 25174.51568260 .00000072 00000-0 00000-0 0 9992 2 29486 54.6863 165.5711 0104200 46.6800 316.1758 2.00562203137204 NAVSTAR 59 (USA 192) 1 29601U 06052A 25173.44504793 .00000069 00000-0 00000-0 0 9990 2 29601 55.0131 228.2715 0085161 86.6180 274.4411 2.00563555136196 NAVSTAR 60 (USA 196) 1 32260U 07047A 25173.25264134 -.00000041 00000-0 00000-0 0 9992 2 32260 53.8318 94.9283 0161669 81.6621 280.1517 2.00571879129590 NAVSTAR 61 (USA 199) 1 32384U 07062A 25173.07246959 -.00000059 00000-0 00000-0 0 9990 2 32384 55.3250 288.6073 0032306 158.4303 200.2686 2.00568408128282 NAVSTAR 62 (USA 201) 1 32711U 08012A 25174.16464130 .00000075 00000-0 00000-0 0 9991 2 32711 54.4654 164.2591 0199710 243.4469 114.4918 2.00558714126550 NAVSTAR 64 (USA 206) 1 35752U 09043A 25174.39141870 -.00000072 00000-0 00000-0 0 9990 2 35752 55.9684 41.5767 0055709 78.5841 98.9567 2.00575213116164 NAVSTAR 65 (USA 213) 1 36585U 10022A 25174.58885545 .00000075 00000-0 00000-0 0 9991 2 36585 54.3370 223.0121 0120499 64.0689 17.1645 2.00570177110409 NAVSTAR 66 (USA 232) 1 37753U 11036A 25173.41300529 -.00000081 00000-0 00000-0 0 9998 2 37753 56.7056 346.0021 0135841 60.3789 317.7221 2.00566156102060 NAVSTAR 67 (USA 239) 1 38833U 12053A 25174.34425036 .00000061 00000-0 00000-0 0 9999 2 38833 53.5404 158.2951 0166336 60.7576 300.8812 2.00562988 92244 NAVSTAR 68 (USA 242) 1 39166U 13023A 25174.20806486 -.00000048 00000-0 00000-0 0 9990 2 39166 54.7926 283.5769 0132980 48.1267 313.0133 2.00560885 88689 NAVSTAR 69 (USA 248) 1 39533U 14008A 25174.20685541 .00000073 00000-0 00000-0 0 9996 2 39533 53.6175 163.9569 0078790 226.0134 133.3329 2.00563964 82481 NAVSTAR 70 (USA 251) 1 39741U 14026A 25173.98719141 -.00000085 00000-0 00000-0 0 9999 2 39741 56.6453 345.4881 0034732 319.8738 39.8769 2.00573576 81338 NAVSTAR 71 (USA 256) 1 40105U 14045A 25174.07604059 -.00000035 00000-0 00000-0 0 9993 2 40105 55.1216 102.7905 0029644 115.9249 244.3569 2.00561458 78876 NAVSTAR 72 (USA 258) 1 40294U 14068A 25173.94574654 -.00000069 00000-0 00000-0 0 9996 2 40294 56.7268 44.8269 0061366 67.0217 293.6816 2.00554042 78005 NAVSTAR 73 (USA 260) 1 40534U 15013A 25174.58423472 .00000078 00000-0 00000+0 0 9994 2 40534 53.2351 219.0136 0098965 35.1795 325.5581 2.00572754 75054 NAVSTAR 74 (USA 262) 1 40730U 15033A 25174.24808252 -.00000045 00000-0 00000-0 0 9996 2 40730 54.2722 281.8655 0103975 25.1988 335.3213 2.00574506 72795 NAVSTAR 75 (USA 265) 1 41019U 15062A 25174.30302545 -.00000069 00000-0 00000-0 0 9996 2 41019 56.7032 44.6691 0103458 228.1371 131.0308 2.00566770 70630 NAVSTAR 76 (USA 266) 1 41328U 16007A 25173.88680128 -.00000032 00000-0 00000-0 0 9997 2 41328 55.3044 103.7205 0087889 242.9154 116.1626 2.00569356 68638